Flag for Switzerland Weather past 2 weeks in Geneva, Geneva, Switzerland

Now
60 °F

Cool.


Feels Like: 60 °F
Forecast: 56 / 67 °F
Wind: 1 mph from Northeast

Location: Geneve-Cointrin

Current Time: Sep 2, 2015 at 2:32:16 AM

Latest Report: Sep 2, 2015 at 1:00 AM


Visibility: N/A

Pressure: 30.08 "Hg

Humidity: 92%

Dew point: 58 °F

Location of GenevaLocation

Historic Weather in Geneva — Graph

°F

Geneva temperature yesterday

Maximum temperature yesterday: 74 °F (at 3:00 AM)
Minimum temperature yesterday: 63 °F (at 10:00 PM)
Average temperature yesterday: 69 °F

Past Weeks' High & Low Weather Summary

 TemperatureHumidityPressure
High89 °F (Aug 30, 6:00 PM)94% (Aug 24, 5:00 AM)30.25 "Hg (Aug 24, 5:00 AM)
Low49 °F (Aug 20, 7:00 AM)26% (Aug 25, 4:00 PM)29.73 "Hg (Aug 24, 4:00 AM)
Average68 °F65%30.03 "Hg
* Reported Aug 18 1:00 AM — Sep 2 1:00 AM, Geneva, Weather by CustomWeather, © 2015

Note: Actual official high and low records may vary slightly from our data, if they occured in-between our weather recording intervals... More about our weather records

Advertising

Geneva weather history for previous 24 hours

 ConditionsComfort  
Time TempWeatherWind HumidityBarometerVisibility
1:00 AM
Wed, Sep 2
60 °FCool.1 mph92%30.08 "HgN/A
12:00 AM62 °FCool.3 mph91%30.07 "HgN/A
10:00 PM
Tue, Sep 1
63 °FMild.3 mph92%30.07 "HgN/A
9:00 PM63 °FMild.2 mph88%30.06 "HgN/A
8:00 PM65 °FLow clouds.2 mph89%30.04 "Hg19 mi
7:00 PM65 °FMild.3 mph88%30.03 "HgN/A
6:00 PM66 °FMild.5 mph89%30.03 "HgN/A
5:00 PM67 °FSprinkles. Low clouds.8 mph80%30.01 "Hg12 mi
4:00 PM66 °FMild.9 mph86%30.01 "HgN/A
3:00 PM66 °FMild.12 mph90%30.00 "HgN/A
2:00 PM68 °FSprinkles. Overcast.14 mph84%29.98 "Hg6 mi
1:00 PM72 °FMild.20 mph63%29.95 "HgN/A
12:00 PM72 °FMild.25 mph64%29.94 "HgN/A
11:00 AM72 °FPartly sunny.20 mph62%29.93 "Hg22 mi
10:00 AM73 °FMild.21 mph55%29.90 "HgN/A
9:00 AM72 °FMild.18 mph60%29.89 "HgN/A
8:00 AM72 °FSprinkles. Overcast.12 mph54%29.87 "Hg14 mi
7:00 AM68 °FMild.5 mph66%29.86 "HgN/A
6:00 AM69 °FMild.1 mph64%29.85 "HgN/A
4:00 AM73 °FMild.13 mph53%29.89 "HgN/A
3:00 AM74 °FMild.10 mph55%29.90 "HgN/A
2:00 AM70 °FOvercast.2 mph67%29.91 "Hg25 mi
Weather by CustomWeather, © 2015

See weather overviewHow to use our weather pages